STARLINK-2489

Last updated on Sat May 08 2021 00:02:05 GMT+0000 (Coordinated Universal Time)

1 48146U 21027BG 21127.58334491 .00057005 00000-0 40799-3 0 9994 2 48146 53.0468 191.7233 0003051 16.7381 296.4961 15.73183026 1770

Satellite not in orbit